EHI
0 0 0 0 0 0 0 0 0 0 3 15 33 41 32 16 4 1 1 0 0 0 0 0 0 0 0 0 0 0 0 0 0 0 0 0 0 0
0 0 0 0 0 0 0 0 0 0 2 10 23 29 22 10 3 2 1 0 0 0 0 0 0 0 0 0 0 0 0 0 0 0 0 0 0 0
0 0 0 0 0 0 0 0 0 0 1 3 9 13 10 4 1 1 0 0 0 0 0 0 0 0 0 0 0 0 0 0 0 0 0 0 0 0
0 0 0 0 0 0 0 0 0 0 0 0 1 3 3 1 0 0 0 0 0 0 0 0 0 0 0 0 0 0 0 0 0 0 0 0 0 0
0 0 0 0 0 0 0 0 0 0 0 0 0 0 0 0 0 0 0 0 0 0 0 0 0 0 0 0 0 0 0 0 0 0 0 0 0 0
0 0 0 0 0 0 0 0 0 0 0 0 0 0 0 0 0 0 0 0 0 0 0 0 0 0 0 0 0 0 0 0 0 0 0 0 0 0
0 0 0 0 0 0 0 0 0 0 0 0 0 0 0 0 0 0 0 0 0 0 0 0 0 0 0 0 0 0 0 0 0 0 0 0 0 0
0 0 0 0 0 0 0 0 0 0 0 0 0 0 0 0 0 0 0 0 0 0 0 0 0 0 0 0 0 0 0 0 0 0 0 0 0 0
0 0 0 0 0 0 0 0 0 0 0 0 0 0 0 0 0 0 0 0 0 0 0 0 0 0 0 0 0 0 0 0 0 0 0 0 0 0
0 0 0 0 0 0 0 0 0 0 0 0 0 0 0 0 0 0 0 0 0 0 0 0 0 0 0 0 0 0 0 0 0 0 0 0 0 0
0 0 0 0 0 0 0 0 0 0 0 0 0 0 0 0 0 0 0 0 0 0 0 0 0 0 0 0 0 0 0 0 0 0 0 0 0 0
0 0 0 0 0 0 0 0 0 0 0 0 0 0 0 0 0 0 0 0 0 0 0 0 0 0 0 0 0 0 0 0 0 0 0 0 0 0
0 0 0 0 0 0 0 0 0 0 0 0 0 0 0 0 0 0 0 0 0 0 0 0 0 0 0 0 0 0 0 0 0 0 0 0 0 0
0 0 0 0 0 0 0 0 0 0 0 0 0 0 0 0 0 0 0 0 0 0 0 0 0 0 0 0 0 0 0 0 0 0 0 0 0 0
0 0 0 0 0 0 0 0 0 0 0 0 0 0 0 0 0 0 0 0 0 0 0 0 0 0 0 0 0 0 0 0 0 0 0 0 0 0
0 0 0 0 0 0 0 0 0 0 0 0 0 0 0 0 0 0 0 0 0 0 0 0 0 0 0 0 0 0 0 0 0 0 0 0 0 0
0 0 0 0 0 0 0 0 0 0 0 0 0 0 0 0 0 0 0 0 0 0 0 0 0 0 0 0 0 0 0 0 0 0 0 0 0 0
0 0 0 0 0 0 0 0 0 0 0 0 0 0 0 0 0 0 0 0 0 0 0 0 0 0 0 0 0 0 0 0 0 0 0 0 0 0
0 0 0 0 0 0 0 0 0 0 0 0 0 0 0 0 0 0 0 0 0 0 0 0 0 0 0 0 0 0 0 0 0 0 0 0 0 0
0 0 0 0 0 0 0 0 0 0 0 0 0 0 0 0 0 0 0 0 0 0 0 0 0 0 0 0 0 0 0 0 0 0 0 0 0 0
0 0 0 0 0 0 0 0 0 0 0 0 0 0 0 0 0 0 0 0 0 0 0 0 0 0 0 0 0 0 0 0 0 0 0 0 0 0
0 0 0 0 0 0 0 0 0 0 0 0 0 0 0 0 0 0 0 0 0 0 0 0 0 0 0 0 0 0 0 0 0 0 0 0 0 0
0 0 0 0 0 0 0 0 0 0 0 0 0 0 0 0 0 0 0 0 0 0 0 0 0 0 0 0 0 0 0 0 0 0 0 0 0 0
Wind_Speed
6 7 6 6 5 5 5 5 6 5 4 2 1 3 5 6 7 8 8 12 13 12 12 12 13 13 13 13 14 13 13 14 14 14 13 11 6 1
5 6 6 6 5 5 5 5 6 6 4 1 2 5 6 8 8 9 10 14 13 13 13 13 13 14 14 14 14 14 14 14 15 15 16 16 14 12
5 5 6 6 5 5 4 5 5 5 4 1 2 5 8 9 9 8 8 8 8 14 14 14 14 14 15 15 15 14 15 15 16 16 16 16 15 15
5 5 6 5 6 5 5 6 5 6 5 6 4 4 7 8 9 9 8 8 8 14 16 16 15 15 15 15 14 13 14 14 15 15 15 15 15 15
3 4 4 5 6 5 6 5 4 5 5 8 6 5 5 6 8 9 10 8 9 11 14 15 15 15 15 14 13 13 13 13 13 13 14 15 15 15
2 2 2 4 5 6 5 4 2 4 8 9 9 6 5 5 6 8 8 6 7 9 10 11 14 15 15 14 14 14 13 13 13 14 14 14 14 14
3 1 2 4 5 4 3 1 2 6 8 9 9 7 5 5 5 5 8 7 7 8 8 7 7 7 8 11 13 14 13 13 13 13 13 13 13 13
3 3 5 4 5 6 8 8 7 8 9 8 8 8 6 4 3 5 7 8 6 5 6 6 6 6 6 5 7 10 11 11 11 11 11 11 10 10
5 4 5 6 5 5 7 10 12 13 11 8 10 7 5 4 3 4 5 6 5 7 6 7 6 7 6 6 8 9 9 10 10 10 9 8 7 7
6 6 7 8 6 6 6 7 7 7 8 8 8 7 5 3 3 5 6 5 5 5 7 7 7 7 7 5 7 8 9 9 9 8 8 7 6 5
7 8 9 9 10 9 7 8 8 7 9 12 11 11 10 7 5 4 5 5 4 4 4 5 6 6 5 4 5 7 7 7 7 6 6 7 7 6
6 8 11 11 12 9 8 8 9 8 9 10 9 8 7 7 8 6 3 2 5 4 2 4 7 5 4 3 5 5 4 5 6 5 3 2 4 3
6 7 8 15 13 9 7 7 9 9 8 7 6 5 4 4 6 6 5 2 4 4 3 3 4 4 4 4 4 6 6 5 4 4 5 4 1 1
4 5 9 16 13 10 7 11 13 10 6 5 5 4 4 6 6 6 6 6 6 7 5 4 3 2 3 4 4 4 4 4 3 2 2 5 4 3
4 5 14 16 13 8 11 15 11 5 5 5 5 4 6 7 6 5 5 5 6 6 6 6 4 2 2 4 4 4 3 3 3 3 2 1 3 3
1 7 15 14 9 10 10 9 6 4 5 5 6 7 6 5 4 4 4 4 5 4 5 6 6 5 4 4 4 3 2 3 3 3 1 3 1 2
3 5 8 8 8 7 6 5 4 4 4 6 7 7 5 4 4 4 4 4 5 4 3 3 4 4 5 4 3 3 2 3 3 2 1 2 1 3
5 6 8 8 8 8 7 5 4 4 4 6 6 5 5 4 4 4 4 5 6 5 4 3 3 2 2 3 2 2 2 3 1 1 1 2 2 1
7 6 6 7 7 7 6 6 5 5 5 5 5 5 4 5 4 3 3 4 5 5 5 5 4 4 5 5 2 2 2 2 1 1 1 1 1 1
5 4 5 6 6 7 7 6 6 6 5 5 5 5 5 5 4 4 3 4 5 5 4 3 2 2 2 2 4 3 4 3 3 2 1 2 2 2
4 2 3 4 5 6 6 6 7 6 5 5 5 5 5 5 4 4 4 5 4 4 5 4 3 2 1 1 1 3 4 7 6 4 3 2 2 2
4 3 2 3 4 6 7 7 7 6 5 5 5 5 4 5 5 5 6 4 2 3 7 5 3 2 2 2 2 2 4 5 8 10 7 5 3 3
4 3 2 3 5 6 7 8 9 6 5 5 6 4 4 4 4 5 6 5 4 5 7 6 5 4 4 4 3 3 3 4 4 4 5 11 15 15
Wind_Direction
288 289 285 279 275 268 260 250 249 258 251 207 123 111 112 109 131 110 107 106 104 100 96 93 89 85 82 79 75 72 70 69 67 63 58 49 36 283
284 285 287 283 278 272 264 254 239 236 242 189 145 141 128 118 110 104 107 109 106 105 101 97 93 90 86 82 80 76 73 71 70 67 63 57 52 51
297 301 301 297 290 282 269 257 243 226 220 160 113 127 120 118 113 112 114 106 107 106 103 99 94 91 87 84 81 79 77 74 70 68 66 63 59 56
302 311 312 312 307 296 282 262 241 219 185 154 132 126 121 121 120 118 115 109 107 108 105 101 97 92 88 85 81 77 75 73 71 69 67 66 64 62
297 311 320 324 316 306 291 270 245 214 159 143 133 122 112 119 119 116 113 113 111 114 106 100 98 95 91 87 84 79 75 72 71 70 70 69 68 66
260 287 325 337 329 314 303 282 228 158 139 136 132 128 118 119 122 126 125 128 131 126 106 106 104 97 94 93 89 84 78 74 72 72 71 71 70 69
220 203 76 56 27 355 332 335 132 129 131 131 132 130 130 134 135 141 140 139 125 126 126 129 121 107 97 90 87 86 83 80 78 77 76 74 73 72
201 169 138 120 85 58 61 69 94 121 129 130 135 136 133 134 132 144 142 142 142 157 145 142 129 112 104 95 100 96 91 87 84 82 79 78 78 76
188 178 167 134 134 110 87 80 79 86 102 118 125 126 130 140 142 156 163 160 147 158 146 130 120 112 111 118 128 119 111 104 98 93 91 91 94 94
186 172 150 150 152 146 122 99 89 88 107 111 114 114 122 145 173 164 149 136 127 133 134 129 133 127 126 134 154 144 130 118 108 96 83 72 76 112
187 169 158 157 156 156 133 116 105 96 98 112 117 121 121 116 122 128 130 131 130 126 124 124 134 130 135 145 166 167 152 144 134 116 89 57 45 91
183 163 164 156 159 160 144 136 129 129 126 120 120 125 119 97 83 82 87 137 143 134 125 118 144 142 145 155 161 171 179 184 182 173 149 76 38 65
190 168 158 154 158 157 150 144 145 141 135 131 127 123 112 95 80 70 56 57 136 124 109 98 144 153 141 151 165 180 179 174 187 203 214 227 257 53
250 181 156 159 160 159 152 149 154 151 144 142 139 140 124 99 89 81 68 56 82 98 78 62 94 113 133 144 146 151 154 154 148 142 176 184 203 181
271 204 157 156 152 148 150 155 164 172 154 151 145 129 111 112 108 98 90 78 70 76 71 52 48 56 71 122 130 135 139 141 117 88 24 274 188 175
242 155 144 146 144 134 145 160 182 181 157 146 124 114 115 127 138 143 139 124 98 81 67 61 50 51 64 68 100 108 107 119 114 97 344 297 264 123
137 161 149 145 141 143 155 172 181 151 139 122 121 129 144 161 160 159 149 133 122 124 118 94 80 83 83 63 88 91 92 91 107 116 294 320 3 95
173 186 158 152 151 153 161 164 156 144 133 127 134 149 163 159 142 148 158 149 144 145 144 142 129 112 103 48 48 94 97 89 59 20 26 10 350 79
193 192 158 155 155 157 159 156 155 145 135 138 151 156 149 138 139 158 161 136 134 137 146 158 169 177 194 181 227 282 147 139 128 33 14 331 302 289
204 188 159 158 157 157 158 158 151 144 146 155 158 151 146 148 154 160 150 138 131 132 140 145 125 98 61 112 152 207 222 182 167 190 236 263 260 242
202 204 168 161 156 153 150 143 140 148 160 155 149 148 154 155 159 164 131 125 144 157 145 123 127 143 108 16 212 170 195 221 210 195 204 235 259 261
206 208 190 169 155 147 138 137 143 153 159 153 146 156 161 164 165 150 136 149 187 153 122 127 158 174 204 243 258 191 180 200 237 240 237 222 215 234
208 215 222 180 150 141 140 146 152 154 162 156 151 169 172 163 149 143 147 173 183 149 140 153 173 200 219 215 224 242 217 202 208 194 232 232 231 242